Temp
25 25 25 24 23 23 23 22 22 22 21 21 21 21 21 21 21 20 20 20 20 20 20 20 19 19 18 18 17 17 16 15 12 13 14 15 14 13 14 14 15 16 17
25 25 24 24 23 23 23 22 22 21 21 21 21 21 21 21 21 20 20 20 20 20 20 20 19 19 18 18 17 17 16 16 13 12 13 13 13 14 12 13 14 15 16
24 24 24 24 24 23 23 23 22 22 21 21 21 21 21 21 21 21 21 21 20 20 20 19 19 19 18 18 17 17 17 16 15 12 12 12 13 13 13 14 14 14 15
24 24 24 24 24 24 23 22 22 22 21 21 21 21 21 21 21 21 21 21 20 20 20 20 19 19 18 18 17 17 16 16 15 12 12 12 12 13 13 13 13 14 14
24 23 24 24 24 24 23 23 22 22 21 21 21 21 21 21 22 21 21 21 20 20 20 19 19 18 18 18 17 17 16 16 14 13 13 12 13 13 13 14 13 13 14
23 23 24 24 24 24 23 23 22 22 22 22 22 22 21 22 21 21 20 20 20 20 20 20 19 18 18 18 17 17 16 16 15 13 12 12 13 13 13 13 13 13 13
23 23 24 24 23 23 23 23 22 22 22 22 22 22 22 22 21 21 20 20 20 20 19 18 18 18 18 17 17 17 16 16 16 14 13 13 12 12 12 12 12 12 13
22 23 23 24 23 23 23 23 23 23 22 22 22 21 21 21 21 20 20 20 20 19 18 17 17 17 18 17 17 16 16 16 15 15 13 13 13 12 12 12 12 12 12
21 22 24 24 23 23 23 23 23 23 22 22 20 21 19 20 21 20 19 19 19 18 17 16 16 17 17 16 15 15 15 15 14 14 14 14 13 13 12 12 12 12 13
21 23 25 25 24 24 24 24 23 23 22 22 21 21 19 20 20 20 19 19 18 17 16 16 16 16 15 15 14 13 11 11 11 12 14 14 13 12 12 11 12 12 13
23 25 25 24 25 25 24 24 23 22 19 18 18 19 19 19 19 19 18 17 16 15 15 15 15 14 14 14 14 12 10 10 11 11 11 12 12 12 11 11 12 12 13
21 22 21 20 19 21 24 23 23 20 19 19 20 19 18 18 18 18 17 15 15 15 14 14 14 14 13 13 13 11 11 11 10 10 10 10 11 11 11 11 12 13 13
20 20 21 21 20 17 19 23 20 19 19 19 18 18 17 17 16 16 16 15 15 14 14 14 14 13 12 12 12 11 10 10 9 9 9 9 10 10 10 11 12 12 13
19 19 19 20 20 20 19 20 20 20 18 18 18 17 15 15 15 15 15 15 15 14 14 15 13 12 11 11 11 10 10 9 9 8 9 9 9 10 10 11 12 12 13
22 21 19 20 21 18 19 20 19 17 17 18 17 16 15 14 14 14 14 14 14 13 13 13 11 11 11 10 10 10 9 9 9 9 8 8 9 9 10 10 11 12 12
20 22 21 19 20 18 18 14 14 15 15 16 15 15 14 13 13 13 13 13 13 12 12 11 10 10 9 9 9 9 9 9 9 9 9 9 9 8 9 10 10 11 12
20 20 21 20 18 17 16 15 13 13 14 14 13 13 13 12 12 12 13 13 12 11 11 10 9 8 8 8 8 8 8 8 9 9 9 9 9 8 8 9 9 10 11
19 20 21 19 18 16 16 16 15 14 12 11 12 12 12 11 11 11 11 11 10 10 9 8 8 8 8 8 8 7 8 8 8 9 9 9 9 9 8 8 8 9 9
18 19 19 20 19 18 16 15 14 13 12 12 11 11 11 11 11 10 10 10 9 8 8 8 8 8 8 7 7 7 7 7 8 8 9 9 9 9 9 8 8 8 9
19 20 20 18 17 16 15 14 13 13 12 11 11 11 11 10 10 9 9 9 8 8 8 8 8 8 7 7 7 7 7 7 7 8 8 9 9 10 9 9 9 8 8
19 18 19 18 17 16 15 14 14 13 12 11 11 11 11 10 9 9 9 9 8 8 8 8 8 8 7 7 6 6 6 6 6 7 8 8 9 10 10 10 9 9 9
19 18 18 17 16 15 15 14 13 13 12 11 11 10 10 10 9 9 9 9 8 8 8 8 7 7 6 6 6 5 5 6 6 7 7 8 9 9 10 10 9 9 9
17 17 16 15 15 15 14 14 14 13 12 11 11 10 10 10 9 9 9 8 8 8 8 8 7 6 6 6 6 5 6 6 6 6 7 8 8 9 9 9 9 8 9
16 15 15 14 14 14 14 14 14 14 12 12 11 10 10 10 9 9 9 9 8 8 8 7 7 6 6 6 6 5 5 5 6 7 7 7 8 8 9 9 9 9 9
15 15 14 14 14 14 14 13 13 13 13 12 12 11 10 9 9 9 9 9 8 8 8 7 7 6 6 6 6 6 5 5 6 6 7 7 7 8 8 8 8 8 9
15 15 15 14 14 14 14 13 13 13 13 13 12 11 10 9 9 9 9 9 8 8 8 7 7 6 6 6 6 6 6 5 6 6 6 6 7 7 7 7 8 8 8
Height
783 789 794 798 801 804 807 810 810 812 813 814 815 815 814 814 814 814 813 811 812 811 810 810 809 808 808 808 807 806 805 804 801 794 792 787 781 776 771 766 761 757 753
779 785 790 794 798 800 803 805 807 808 810 811 811 811 811 810 808 808 808 809 809 807 807 806 805 804 803 803 802 801 800 799 797 790 786 782 778 770 765 760 754 750 746
775 783 788 790 792 795 797 801 803 804 806 807 808 808 808 807 806 805 804 803 803 803 802 801 800 799 797 797 796 796 794 793 791 787 781 777 772 765 759 754 748 742 737
769 774 779 783 788 791 793 797 798 800 802 804 805 805 804 803 803 801 800 799 798 797 795 795 795 794 792 791 790 789 788 786 784 781 776 771 766 760 756 749 740 735 730
760 769 774 778 783 787 789 792 794 795 797 799 801 801 800 799 799 799 798 795 795 793 791 790 790 788 787 786 785 783 782 780 778 775 771 766 760 754 749 742 736 728 720
756 763 771 775 780 782 783 785 788 789 793 796 797 798 797 796 795 794 795 793 791 788 786 784 783 782 782 780 778 778 775 773 771 769 765 760 754 748 742 736 730 724 713
749 757 765 771 774 776 778 780 782 784 788 791 791 792 793 793 791 790 789 789 788 784 782 780 779 777 776 774 771 770 769 767 765 763 759 753 747 741 735 725 719 713 707
749 757 761 763 766 770 773 775 777 780 784 786 788 790 788 786 785 785 786 785 784 781 779 777 775 773 770 768 766 764 763 760 758 755 751 746 740 732 725 715 704 697 694
745 751 753 756 759 764 768 768 770 774 778 782 785 785 788 787 781 781 781 780 779 777 775 774 771 769 766 764 762 760 758 754 751 748 743 737 730 722 713 700 689 683 676
736 741 746 750 755 758 759 761 764 768 770 774 779 778 778 778 779 777 778 776 775 772 771 770 767 765 763 761 759 756 752 749 744 740 735 727 720 710 699 687 676 665 662
734 742 747 750 751 750 751 755 759 764 768 769 775 775 776 775 773 774 773 773 770 769 768 767 763 761 759 758 756 753 750 745 740 736 730 722 713 702 687 673 663 652 652
741 748 755 759 759 754 745 748 756 759 762 765 766 769 769 768 770 770 769 768 767 765 765 763 761 758 757 755 753 751 747 743 737 732 726 719 711 697 678 662 650 640 643
739 746 742 747 759 752 732 749 749 754 759 761 763 764 765 763 766 766 766 766 765 763 761 759 758 758 756 754 752 749 745 740 736 731 725 718 710 696 678 661 650 640 638
739 739 735 737 754 762 754 747 751 757 758 757 757 758 760 763 763 764 764 763 761 761 759 756 755 756 755 753 751 748 744 740 737 730 725 718 709 696 681 666 657 644 638
733 734 738 743 739 748 748 748 751 754 754 753 754 757 759 761 762 762 761 761 760 759 757 755 756 755 753 752 751 747 743 739 735 729 724 717 707 698 689 676 665 656 649
731 733 738 746 747 744 747 752 754 752 752 753 755 759 759 760 760 760 759 758 757 757 756 756 755 754 753 753 750 746 744 739 734 729 724 718 712 706 693 683 674 663 655
723 725 722 733 737 741 744 748 748 751 752 752 756 757 758 759 760 759 756 754 754 755 754 754 754 753 753 752 751 749 746 741 735 731 726 721 715 706 696 691 682 674 664
726 728 728 733 735 737 740 743 746 746 748 754 756 757 757 758 758 758 758 757 757 755 755 754 754 754 754 752 751 750 747 742 738 733 727 723 717 710 700 698 689 683 675
732 730 730 729 731 734 738 740 742 745 747 751 755 756 757 758 758 758 757 757 756 755 755 755 755 754 754 753 752 750 748 744 740 734 729 724 719 713 709 704 698 690 683
722 727 727 730 731 734 736 737 739 743 747 749 750 753 756 757 757 758 757 757 757 756 756 756 756 755 754 753 752 749 748 745 742 737 732 726 721 717 714 710 703 699 693
722 725 726 727 727 731 734 735 737 741 745 749 750 752 753 755 756 758 758 757 756 756 757 756 756 755 754 753 751 748 747 746 743 740 736 731 725 720 716 712 707 704 699
721 722 724 726 727 729 733 735 739 741 744 746 749 751 751 753 756 756 757 756 756 756 756 756 756 755 754 752 750 748 747 746 744 741 739 735 730 725 721 716 712 708 706
720 722 724 726 729 730 731 734 738 740 741 743 745 747 749 751 753 754 755 755 755 755 756 756 756 755 754 752 751 750 749 747 746 744 742 739 734 730 726 722 718 715 711
720 722 724 726 727 730 730 733 736 736 737 740 741 744 746 749 751 752 753 753 754 755 755 756 755 754 754 753 752 752 751 750 748 746 744 742 740 736 733 729 726 722 718
721 723 723 724 725 727 730 732 734 735 736 736 737 740 743 746 748 749 750 751 752 753 754 755 755 755 754 754 753 752 751 751 750 748 746 744 742 739 737 735 732 730 726
721 722 723 722 724 726 727 729 730 731 732 733 734 737 739 742 745 747 748 748 749 750 752 753 754 755 755 755 754 753 751 750 750 749 748 746 744 742 741 739 737 735 733
Wind_Speed
39 35 31 24 22 20 17 13 11 11 10 9 10 10 11 10 9 11 13 13 14 13 13 13 14 14 14 13 11 9 9 10 9 18 20 32 37 36 36 36 32 33 36
39 35 33 25 24 25 22 16 12 13 11 11 11 12 11 11 11 12 13 13 14 15 15 14 15 16 17 17 16 16 16 16 17 19 23 27 32 39 30 33 33 32 32
38 37 34 28 28 27 23 19 17 15 15 13 13 12 13 13 13 12 12 15 15 15 17 17 15 17 20 21 21 20 21 21 23 21 24 27 32 36 32 29 33 35 32
40 39 38 32 31 25 22 23 21 19 19 17 16 15 15 14 15 15 17 17 15 14 15 16 18 19 23 23 23 24 24 25 27 22 22 26 27 30 28 28 31 30 31
42 41 41 38 31 25 24 25 24 23 22 19 17 17 16 15 15 15 13 9 11 12 13 15 17 18 20 22 21 26 26 26 24 19 21 24 25 27 28 31 29 32 34
39 39 39 36 30 29 26 25 25 25 23 21 19 18 18 16 14 12 12 11 12 12 15 19 17 15 17 18 22 24 25 25 26 20 22 22 29 28 32 32 29 26 12
41 41 40 36 33 34 31 27 26 28 25 25 22 20 20 18 16 15 14 14 15 17 20 20 16 17 18 20 19 18 19 20 19 18 21 26 27 33 34 36 33 26 29
37 40 41 40 39 38 34 31 29 28 27 26 23 22 20 20 16 14 17 16 16 17 15 14 15 16 15 16 17 15 18 17 17 18 23 27 34 37 38 41 42 40 37
35 41 41 41 40 37 35 34 32 31 29 24 19 15 23 21 17 16 13 13 14 14 12 10 10 13 12 9 11 15 19 22 17 21 26 29 36 40 42 44 33 25 16
38 45 42 39 37 38 39 36 33 31 30 22 19 24 22 18 13 11 12 12 12 14 12 10 10 10 8 9 11 15 18 19 24 28 32 35 38 42 43 40 34 29 22
37 41 37 33 40 43 40 33 30 26 14 11 8 15 14 10 8 9 10 11 10 10 12 15 11 8 6 8 12 15 17 22 24 24 28 32 36 40 44 39 30 23 24
14 8 5 10 21 29 35 28 21 14 10 7 12 15 10 7 8 9 10 6 6 9 10 9 7 6 3 8 13 15 16 18 19 20 22 26 31 38 47 44 38 17 30
19 16 17 24 16 34 16 16 16 11 5 11 14 12 7 7 8 8 5 5 7 8 9 11 12 3 3 10 13 15 16 17 19 19 20 24 31 39 48 39 34 27 25
22 17 14 12 6 31 14 14 12 11 12 8 7 6 9 9 7 5 5 5 7 7 10 10 5 5 5 11 13 14 15 15 17 18 20 25 28 37 40 41 32 32 4
16 18 21 17 26 27 18 17 16 14 9 8 9 10 13 9 7 5 6 7 7 7 4 5 11 1 8 11 12 14 15 16 19 20 20 22 28 31 32 38 34 26 19
15 7 5 19 24 24 19 13 11 10 8 7 6 5 7 6 3 4 7 8 6 3 8 8 5 4 7 10 13 14 15 17 20 21 22 22 23 24 27 32 32 31 23
19 13 13 20 27 24 21 20 16 10 10 9 9 8 6 5 3 6 7 4 6 11 8 4 2 4 6 7 9 13 17 18 19 19 21 21 23 24 26 26 29 27 27
3 8 10 17 22 22 19 16 15 16 15 12 11 9 6 3 2 3 1 5 7 5 4 3 5 6 7 9 10 13 16 17 19 19 19 21 23 22 26 23 25 24 23
4 3 5 10 14 16 15 13 13 14 14 13 11 9 6 4 3 1 1 4 4 6 7 7 5 5 7 8 10 10 12 14 16 19 21 22 23 24 22 22 22 26 24
3 1 4 12 16 17 17 20 21 20 19 17 13 9 8 7 7 5 4 5 6 7 5 4 3 2 4 6 10 9 9 11 15 18 21 22 23 23 21 22 23 21 21
9 7 8 14 19 20 18 17 20 19 17 15 11 8 7 9 10 8 6 6 6 5 4 4 6 4 2 7 9 8 6 10 14 17 20 22 23 23 23 22 20 21 23
6 7 8 11 15 16 13 11 13 14 16 18 14 12 10 9 10 10 8 6 6 7 6 3 2 2 4 7 8 9 9 11 14 17 19 21 22 22 24 25 24 22 21
7 7 9 12 13 13 12 11 12 14 19 19 17 16 14 12 9 12 10 6 8 11 7 2 1 2 3 5 6 9 10 13 13 14 17 19 20 22 22 25 25 23 23
11 8 6 6 10 11 10 9 8 8 17 19 18 19 18 15 12 8 10 7 12 11 8 3 3 4 4 4 5 6 9 12 12 12 13 15 17 18 20 23 24 25 24
5 4 6 8 8 9 10 10 7 9 12 14 17 22 20 18 15 12 14 13 10 10 8 4 2 3 5 5 6 4 5 7 9 9 11 12 15 16 19 19 21 24 25
2 4 8 11 14 15 14 13 11 12 13 16 17 23 23 23 20 18 16 13 11 12 10 7 3 3 4 6 8 7 4 3 6 7 9 9 12 14 16 17 19 21 22
Wind_Direction
197 193 195 199 200 199 206 205 208 215 227 238 244 248 260 267 272 278 282 278 276 282 276 265 270 263 264 265 267 265 276 281 271 294 296 320 319 318 316 312 309 291 282
196 194 201 205 206 205 206 211 219 227 235 250 248 250 256 263 271 277 280 281 280 277 276 276 266 257 253 264 263 264 270 276 267 281 299 306 309 316 310 308 306 301 278
197 195 203 205 209 206 205 216 219 230 240 245 243 246 257 265 274 279 279 280 272 276 281 276 277 258 259 261 262 264 268 277 281 274 290 299 306 310 305 308 304 305 296
198 198 202 200 200 204 207 210 222 231 237 239 241 249 257 274 280 277 274 273 272 269 275 275 276 270 266 271 264 269 274 277 289 284 289 293 297 305 302 303 301 298 295
193 196 201 200 203 207 209 219 227 229 236 241 247 252 261 270 281 278 269 254 269 278 285 286 286 287 279 281 280 278 276 277 283 281 289 289 297 306 301 304 291 290 288
188 193 200 207 204 209 211 219 224 230 235 244 248 258 260 269 277 264 247 262 271 276 283 289 289 292 288 281 282 285 280 281 282 271 280 284 294 294 303 294 288 287 284
188 193 203 206 208 212 217 219 227 232 235 242 245 248 259 264 269 268 260 269 277 291 296 303 299 301 301 296 296 291 285 288 284 293 287 287 292 296 298 290 284 267 267
189 197 204 204 214 216 217 222 231 236 240 244 248 255 259 262 274 274 277 268 280 300 307 309 306 309 307 296 299 299 298 295 295 298 310 305 303 299 297 288 285 274 265
186 201 204 210 212 215 220 226 233 236 240 243 236 269 288 280 291 284 263 269 281 295 293 315 314 319 310 310 308 308 304 301 294 305 314 313 320 317 312 294 283 266 253
189 204 203 212 217 218 224 228 233 237 239 241 248 267 266 274 276 273 268 258 274 295 304 307 319 324 303 308 317 315 310 306 308 312 316 325 326 318 315 302 282 279 223
200 200 209 216 220 225 226 228 230 238 220 179 221 261 267 270 274 263 252 263 277 289 312 315 319 318 320 322 331 332 326 318 315 312 320 326 320 322 320 312 304 269 215
176 188 93 357 320 271 222 222 229 211 166 204 247 255 254 273 243 241 270 266 274 302 309 318 333 330 343 354 354 349 341 342 342 331 324 320 321 324 323 325 332 302 221
135 139 74 16 335 328 283 228 162 158 205 242 244 267 245 211 219 216 225 268 297 307 315 308 301 229 19 357 353 351 357 356 346 336 328 327 325 328 332 333 344 357 227
108 90 89 111 169 262 237 177 175 211 215 225 228 213 188 190 194 206 235 269 292 306 311 292 199 165 352 352 349 351 360 1 347 341 334 332 337 342 336 343 350 1 5
171 186 181 202 202 216 190 185 200 204 194 177 175 186 186 196 208 252 275 285 291 319 66 119 143 85 360 352 352 1 6 8 3 4 344 345 354 345 335 344 352 5 16
184 163 210 217 215 201 197 184 174 150 144 152 160 183 172 195 220 282 286 279 257 206 133 116 95 26 8 354 359 3 9 9 9 4 356 355 354 339 340 349 355 2 11
213 234 210 203 194 190 187 178 151 141 144 134 145 152 137 129 70 4 323 241 183 168 142 118 68 11 359 7 10 6 356 1 4 4 0 358 354 355 1 353 353 2 6
270 174 174 195 192 185 178 174 174 167 156 150 147 150 149 152 115 115 139 136 129 119 117 106 89 62 42 32 24 14 5 6 8 8 5 4 11 1 5 358 359 1 360
136 110 161 178 174 170 175 191 177 167 167 164 166 177 186 216 201 246 281 208 147 121 113 107 86 58 38 24 12 6 9 12 15 18 16 17 16 18 7 5 6 6 14
84 28 122 164 168 171 168 156 160 163 171 168 173 175 179 184 184 175 147 140 135 121 109 78 29 357 357 354 354 354 5 20 23 25 22 20 22 24 20 11 17 6 6
233 208 201 191 177 175 171 166 163 169 181 183 175 176 186 187 180 180 177 173 157 147 124 87 91 92 48 350 357 4 32 32 32 32 29 28 27 25 28 31 25 22 26
150 172 179 187 186 180 182 182 184 184 188 182 177 170 165 177 184 184 185 165 160 153 153 159 134 65 8 7 25 50 60 42 35 34 33 33 36 40 36 37 37 30 29
175 169 166 179 188 188 186 190 195 203 201 196 188 180 178 178 182 196 190 177 179 165 165 167 344 333 13 31 50 58 57 43 35 35 36 37 42 42 44 40 42 40 37
153 153 143 166 183 189 187 193 219 220 203 207 204 197 188 186 183 182 186 169 164 167 170 152 60 42 55 51 61 61 54 45 45 40 41 42 47 50 52 52 51 49 51
138 156 179 189 196 216 224 228 233 210 195 190 205 204 195 190 185 179 170 168 176 175 176 168 104 64 68 59 49 45 51 46 45 42 43 44 50 53 55 60 59 60 58
69 354 307 246 231 227 229 234 248 236 236 217 199 196 195 191 187 181 182 183 183 190 189 194 181 126 105 70 43 28 8 17 36 52 46 47 50 56 62 67 66 64 63